Regional Weather Roundup
Issued by NWS

Home | Current Version | Previous Version | Graphics & Text | Print | Product List | Glossary Off
Versions: 1 2 3 4 5 6 7 8 9 10 11 12 13 14 15 16 17 18 19 20 21 22 23 24 25 26 27 28 29 30 31 32 33 34 35 36 37 38 39 40 41 42 43 44 45 46 47 48 49 50

000
ASUS43 KTOP 201408
RWRKS

WEATHER ROUNDUP FOR KANSAS
NATIONAL WEATHER SERVICE GOODLAND KS
900 AM CDT WED AUG 20 2014

NOTE:  "FAIR" INDICATES FEW OR NO CLOUDS BELOW 12,000 FEET WITH NO
SIGNIFICANT WEATHER AND/OR OBSTRUCTIONS TO VISIBILITY.

KSZ001>006-013>018-027>032-041>047-201500-
NORTHWEST KANSAS

CITY           SKY/WX    TMP DP  RH WIND       PRES   REMARKS
GOODLAND       MOSUNNY   72  61  68 S14       29.82S
HAYS           SUNNY     79  63  57 S16       29.81F
HILL CITY      SUNNY     78  64  61 S9        29.80R
RUSSELL        SUNNY     78  65  63 S13       29.80S
$$

KSZ061>065-074>080-084>089-201500-
SOUTHWEST KANSAS

CITY           SKY/WX    TMP DP  RH WIND       PRES   REMARKS
DODGE CITY     SUNNY     75  64  68 S14G21    29.85S
ELKHART          N/A     71  60  68 S14         N/A
GARDEN CITY    SUNNY     73  65  75 S13       29.84S
GREAT BEND     SUNNY     79  64  61 S15       29.83S
LIBERAL        SUNNY     77  64  65 S20       29.88S
PRATT          SUNNY     77  63  61 S15       29.87R
$$

KSZ066>073-081>083-090>101-201500-
SOUTHEAST KANSAS

CITY           SKY/WX    TMP DP  RH WIND       PRES   REMARKS
CHANUTE        SUNNY     80  70  71 S13       29.91S
COFFEYVILLE    SUNNY     81  71  71 S15       29.91S
HUTCHINSON     SUNNY     79  67  66 S15       29.85R
MEDICINE LODGE   N/A     77  66  68 S9        29.86R
NEWTON           N/A    N/A N/A N/A S13       29.91R
PARSONS        MOSUNNY   80  71  74 S12       29.92S
WICHITA INTL   MOSUNNY   78  66  66 S15       29.87R
WICHITA JABRA  SUNNY     79  67  66 S12       29.87R
WICHITA MCCONL SUNNY     77  70  77 S15       29.88R
WINFIELD       SUNNY     80  67  64 S13G23    29.90R
$$

KSZ007>012-019>026-033>040-048>060-102>105-201500-
NORTHEAST KANSAS

CITY           SKY/WX    TMP DP  RH WIND       PRES   REMARKS
CONCORDIA      MOSUNNY   77  67  71 S12       29.82S
EMPORIA        MOSUNNY   76  69  79 S9        29.88R
LAWRENCE       SUNNY     83  71  67 S8        29.88R
MANHATTAN      SUNNY     81  69  67 S10       29.84S
MARYSVILLE     MOSUNNY   79  68  69 S10       29.83F
OLATHE IND     SUNNY     79  71  76 S12       29.91R
OLATHE EXE     SUNNY     77  71  82 S8        29.90R
SALINA         SUNNY     79  67  66 S10       29.84R
TOPEKA BILLARD MOSUNNY   81  71  71 S8        29.87R
TOPEKA FORBES  MOSUNNY   80  69  69 S12       29.88R
$$



USA.gov is the U.S. government's official web portal to all federal, state and local government web resources and services.